Location: Riverton
(43.0250°N, 108.3790°W)
Time: 00:26:34
(UTC-06:00)

Amateur Radio Satellites - All Passes

Search period start: 22 March 2017 23:56
Search period end: 23 March 2017 23:56
Location: Riverton, 43.0250°N, 108.3790°W

Satellite Date Start Highest point End Downlink Frequencies (MHz)
Time Altitude Azimuth
NANOSAT C BR1 23 Mar 00:01:08 00:03:31 15° 91° (E) 00:05:51 145.865
EO-79 23 Mar 00:02:40 00:05:24 17° 92° (E) 00:08:08 145.935-145.965
TIGRISAT 23 Mar 00:06:59 00:11:09 39° 290° (WNW) 00:15:13 435.000
SPROUT 23 Mar 00:10:43 00:14:40 37° 70° (ENE) 00:18:38 437.525
RS-15 23 Mar 00:12:42 00:24:17 52° 249° (WSW) 00:35:23 29.354- 29.394
UNISAT 6 23 Mar 00:16:02 00:19:57 30° 292° (WNW) 00:23:46 437.425
ISS 23 Mar 00:18:00 00:21:03 35° 337° (NNW) 00:24:07 437.550
FO-29 23 Mar 00:20:26 00:26:43 67° 288° (WNW) 00:32:15 435.910
DX 1 23 Mar 00:22:09 00:25:44 26° 66° (ENE) 00:29:20 434.975-435.025
POLYITAN 1 23 Mar 00:28:39 00:32:27 31° 96° (E) 00:36:14 437.675
VELOX 1 23 Mar 00:30:16 00:34:38 72° 74° (ENE) 00:39:04 145.980
AIST 2D 23 Mar 00:30:42 00:34:10 62° 100° (E) 00:37:37 435.315
QB50P2 23 Mar 00:32:56 00:36:55 38° 98° (E) 00:40:52 145.880/145.840
SO-50 23 Mar 00:36:09 00:40:29 43° 50° (NE) 00:44:46 436.795
ESTCUBE 1 23 Mar 00:36:32 00:40:30 31° 263° (W) 00:44:31 437.505/2401.250
Tancredo 1 23 Mar 00:36:59 00:39:45 26° 341° (NNW) 00:42:32 437.200
DUCHIFAT 1 23 Mar 00:51:35 00:55:41 47° 99° (E) 00:59:43 145.980
50 SAT 23 Mar 00:54:08 00:57:34 88° 76° (ENE) 01:01:03 437.505
BEESAT 3 23 Mar 01:05:24 01:09:02 35° 311° (NW) 01:12:44 437.485
UKube-1 23 Mar 01:09:59 01:14:13 58° 73° (ENE) 01:18:28 .
BEESAT 2 23 Mar 01:11:09 01:15:05 72° 304° (WNW) 01:19:07 435.950
BUGSAT 1 23 Mar 01:24:54 01:28:49 36° 97° (E) 01:32:40 437.445
NANOSAT C BR1 23 Mar 01:35:24 01:39:31 50° 288° (WNW) 01:43:35 145.865
EO-79 23 Mar 01:37:21 01:41:23 44° 289° (WNW) 01:45:24 145.935-145.965
SPROUT 23 Mar 01:47:29 01:50:41 20° 267° (W) 01:53:55 437.525
ISS 23 Mar 01:55:50 01:58:12 18° 357° (N) 02:00:35 437.550
DX 1 23 Mar 01:57:57 02:01:47 30° 263° (W) 02:05:40 434.975-435.025
Gurwin Techsat 1B 23 Mar 02:00:08 02:03:26 16° 90° (E) 02:06:42 435.225
POLYITAN 1 23 Mar 02:04:43 02:08:06 23° 293° (WNW) 02:11:28 437.675
FO-29 23 Mar 02:08:22 02:10:22 12° 310° (NW) 02:12:19 435.910
QB50P2 23 Mar 02:09:20 02:12:26 20° 295° (WNW) 02:15:32 145.880/145.840
VELOX 1 23 Mar 02:10:26 02:11:35 11° 271° (W) 02:12:45 145.980
Tancredo 1 23 Mar 02:14:26 02:16:40 17° 2° (N) 02:18:55 437.200
SO-50 23 Mar 02:17:11 02:20:40 23° 248° (WSW) 02:24:10 436.795
Oscar 19 23 Mar 02:17:40 02:22:32 41° 98° (E) 02:27:23 437.125/150
DUCHIFAT 1 23 Mar 02:28:17 02:30:59 17° 296° (WNW) 02:33:39 145.980
UKube-1 23 Mar 02:48:32 02:50:36 13° 269° (W) 02:52:41 .
BEESAT 2 23 Mar 02:52:17 02:53:37 11° 325° (NW) 02:54:58 435.950
BEESAT 23 Mar 02:52:49 02:57:29 54° 72° (ENE) 03:02:09 436.000
BUGSAT 1 23 Mar 03:00:49 03:03:56 20° 295° (WNW) 03:07:00 437.445
ITUPSAT 1 23 Mar 03:06:08 03:10:55 72° 74° (ENE) 03:15:43 437.325
AO-7 23 Mar 03:12:16 03:16:33 15° 88° (E) 03:20:48 .
O/OREOS (USA 219) 23 Mar 03:26:16 03:30:30 35° 59° (ENE) 03:34:43 437.305
ISS 23 Mar 03:32:40 03:35:29 25° 17° (NNE) 03:38:18 437.550
Gurwin Techsat 1B 23 Mar 03:38:33 03:43:51 66° 287° (WNW) 03:49:06 435.225
MOZHAYETS 4 23 Mar 03:45:48 03:50:23 74° 76° (ENE) 03:54:59
Tancredo 1 23 Mar 03:50:37 03:53:32 31° 22° (NNE) 03:56:27 437.200
ITAMSAT 1 23 Mar 03:55:50 04:00:29 32° 96° (E) 04:05:05 435.822/435.867
Oscar 19 23 Mar 03:57:24 04:01:39 27° 295° (WNW) 04:05:54 437.125/150
KKS-1 23 Mar 03:57:35 04:01:07 24° 66° (ENE) 04:04:41 437.445
CUBESAT XI-V 23 Mar 04:27:40 04:31:46 33° 69° (ENE) 04:35:54 437.345
BEESAT 23 Mar 04:32:30 04:35:34 17° 268° (W) 04:38:40 436.000
STARS 23 Mar 04:44:37 04:48:32 32° 68° (ENE) 04:52:29 437.465
ITUPSAT 1 23 Mar 04:47:09 04:49:14 13° 270° (W) 04:51:20 437.325
AO-7 23 Mar 05:02:16 05:10:36 77° 107° (ESE) 05:18:53 .
O/OREOS (USA 219) 23 Mar 05:05:58 05:09:45 25° 257° (WSW) 05:13:31 437.305
ISS 23 Mar 05:08:55 05:12:13 74° 215° (SW) 05:15:30 437.550
MOZHAYETS 4 23 Mar 05:26:29 05:28:03 12° 271° (W) 05:29:36
Tancredo 1 23 Mar 05:26:42 05:29:46 43° 220° (SW) 05:32:51 437.200
KKS-1 23 Mar 05:33:24 05:37:29 35° 262° (W) 05:41:37 437.445
ITAMSAT 1 23 Mar 05:35:17 05:39:55 33° 294° (WNW) 05:44:32 435.822/435.867
CUBESAT XI-V 23 Mar 06:05:23 06:09:10 25° 266° (W) 06:12:59 437.345
AO-85 23 Mar 06:18:04 06:21:23 25° 46° (NE) 06:24:44 145.980
STARS 23 Mar 06:21:14 06:24:52 25° 265° (W) 06:28:34 437.465
M-CUBED/EXP-1 PRIME 23 Mar 06:25:16 06:28:51 83° 251° (WSW) 06:32:45 437.505
DOVE 4 23 Mar 06:39:44 06:44:37 36° 96° (E) 06:49:25 437.250
LilacSat-2 23 Mar 06:51:38 06:54:57 29° 96° (E) 06:58:14 437.200
AO-7 23 Mar 06:56:01 07:02:36 27° 307° (NW) 07:09:10 .
CUTE-I 23 Mar 06:56:23 07:01:10 32° 96° (E) 07:05:54 437.470
XW-2F 23 Mar 06:57:20 07:00:42 31° 97° (E) 07:04:01 145.980 - 146.000
STRAND 1 23 Mar 06:59:05 07:03:41 34° 67° (ENE) 07:08:18 437.568
XW-2D 23 Mar 07:20:29 07:24:14 66° 101° (E) 07:27:57 145.860 - 145.880
HO-68 23 Mar 07:21:34 07:25:35 15° 88° (E) 07:29:33 435.675
XW-2B 23 Mar 07:26:18 07:30:04 76° 101° (E) 07:33:49 145.730 - 145.750
NUDT-PHONESAT 23 Mar 07:34:06 07:37:49 77° 104° (ESE) 07:41:29 437.300
XW-2C 23 Mar 07:36:19 07:40:05 79° 285° (WNW) 07:43:50 145.795 - 145.815
KAITUO 1B 23 Mar 07:36:24 07:40:08 82° 105° (ESE) 07:43:49 145.475/437.950
YUBILEINY 23 Mar 07:42:58 07:50:25 33° 84° (E) 07:57:52 435.215
BEESAT 3 23 Mar 07:43:58 07:47:08 22° 44° (NE) 07:50:17 437.485
BEESAT 2 23 Mar 07:51:37 07:53:39 13° 38° (NE) 07:55:39 435.950
AO-85 23 Mar 07:58:16 08:01:47 32° 244° (WSW) 08:05:23 145.980
CUTE 1.7 + AOD 2 23 Mar 08:04:52 08:08:19 24° 94° (E) 08:11:45 437.475
SEEDS 23 Mar 08:06:00 08:08:41 16° 92° (E) 08:11:21 437.485
DOVE 4 23 Mar 08:17:31 08:22:10 32° 293° (WNW) 08:26:47 437.250
LilacSat-2 23 Mar 08:26:16 08:29:03 20° 293° (WNW) 08:31:51 437.200
XW-2F 23 Mar 08:31:59 08:34:38 18° 293° (WNW) 08:37:15 145.980 - 146.000
CUTE-I 23 Mar 08:36:22 08:41:12 35° 293° (WNW) 08:45:59 437.470
STRAND 1 23 Mar 08:38:19 08:42:51 31° 264° (W) 08:47:24 437.568
CUBEBUG 2 23 Mar 08:43:09 08:47:05 30° 95° (E) 08:50:53 437.445
XW-2A 23 Mar 08:46:40 08:50:05 77° 282° (WNW) 08:53:26 145.665 - 145.685
FO-29 23 Mar 08:50:47 08:54:33 15° 53° (NE) 08:58:14 435.910
NO-84 23 Mar 09:03:07 09:05:57 88° 322° (NW) 09:08:50 435.350 FM
HO-68 23 Mar 09:07:02 09:14:15 86° 107° (ESE) 09:21:26 435.675
ZACube-1 23 Mar 09:07:44 09:10:48 19° 92° (E) 09:13:48 437.345
Oscar 11 23 Mar 09:07:46 09:10:18 15° 91° (E) 09:12:49 .
BEESAT 3 23 Mar 09:21:05 09:24:55 43° 242° (WSW) 09:28:42 437.485
BEESAT 2 23 Mar 09:27:57 09:32:02 88° 61° (ENE) 09:36:04 435.950
TIGRISAT 23 Mar 09:30:14 09:33:50 22° 65° (ENE) 09:37:24 435.000
AAUSAT CUBESAT 2 23 Mar 09:36:11 09:40:20 83° 102° (ESE) 09:44:29 437.432
AO-73 23 Mar 09:37:46 09:41:43 36° 97° (E) 09:45:33 145.935
YUBILEINY 23 Mar 09:38:12 09:46:45 56° 284° (WNW) 09:55:20 435.215
UNISAT 6 23 Mar 09:38:45 09:42:45 28° 67° (ENE) 09:46:44 437.425
CUTE 1.7 + AOD 2 23 Mar 09:40:28 09:44:08 29° 291° (WNW) 09:47:48 437.475
SEEDS 23 Mar 09:40:36 09:44:34 43° 288° (WNW) 09:48:32 437.485
UWE-3 23 Mar 09:53:37 09:58:00 77° 285° (WNW) 10:02:14 435.000/436.395/437.385
DELFI C3 23 Mar 09:55:39 09:57:53 14° 91° (E) 10:00:07 145.870
PRISM 23 Mar 09:58:58 10:03:02 89° 49° (NE) 10:07:08 437.425
PCSat 23 Mar 10:08:34 10:12:40 22° 107° (ESE) 10:16:46 145.827
CUBEBUG 2 23 Mar 10:19:51 10:23:36 27° 293° (WNW) 10:27:14 437.445
FO-29 23 Mar 10:30:33 10:38:18 63° 71° (ENE) 10:45:39 435.910
NO-84 23 Mar 10:42:11 10:43:54 14° 340° (NNW) 10:45:40 435.350 FM
Oscar 11 23 Mar 10:42:33 10:46:43 49° 287° (WNW) 10:50:51 .
ZACube-1 23 Mar 10:43:17 10:47:14 37° 289° (WNW) 10:51:06 437.345
NANOSAT C BR1 23 Mar 10:54:38 10:56:45 14° 62° (ENE) 10:58:50 145.865
HO-68 23 Mar 10:56:09 11:01:06 21° 306° (NW) 11:06:04 435.675
EO-79 23 Mar 10:56:22 10:58:51 15° 63° (ENE) 11:01:22 145.935-145.965
TIGRISAT 23 Mar 11:05:46 11:10:13 42° 262° (W) 11:14:42 435.000
AIST 2D 23 Mar 11:06:10 11:09:08 25° 70° (ENE) 11:12:07 435.315
AO-73 23 Mar 11:14:33 11:17:42 20° 294° (WNW) 11:20:48 145.935
UNISAT 6 23 Mar 11:15:08 11:19:20 32° 264° (W) 11:23:33 437.425
POLYITAN 1 23 Mar 11:21:59 11:25:37 28° 68° (ENE) 11:29:18 437.675
QB50P2 23 Mar 11:26:11 11:30:01 33° 69° (ENE) 11:33:51 145.880/145.840
DELFI C3 23 Mar 11:29:06 11:32:53 44° 288° (WNW) 11:36:41 145.870
YUBILEINY 23 Mar 11:43:21 11:45:52 11° 308° (NW) 11:48:23 435.215
DUCHIFAT 1 23 Mar 11:43:56 11:47:53 39° 71° (ENE) 11:51:52 145.980
PCSat 23 Mar 11:50:20 11:55:39 55° 305° (NW) 12:01:00 145.827
BUGSAT 1 23 Mar 12:15:16 12:18:56 29° 69° (ENE) 12:22:39 437.445
FO-29 23 Mar 12:17:00 12:23:36 29° 267° (W) 12:30:02 435.910
VELOX 1 23 Mar 12:21:05 12:23:06 13° 90° (E) 12:25:06 145.980
RS-15 23 Mar 12:26:12 12:35:31 28° 101° (E) 12:45:04 29.354- 29.394
ESTCUBE 1 23 Mar 12:27:18 12:31:40 48° 100° (E) 12:36:02 437.505/2401.250
NANOSAT C BR1 23 Mar 12:27:43 12:31:56 62° 259° (W) 12:36:11 145.865
EO-79 23 Mar 12:30:00 12:34:11 54° 260° (W) 12:38:24 145.935-145.965
LO-87 23 Mar 12:35:47 12:39:24 58° 285° (WNW) 12:42:59 145.935 - 145.965
AIST 2D 23 Mar 12:39:43 12:42:21 19° 266° (W) 12:45:00 435.315
POLYITAN 1 23 Mar 12:57:41 13:01:21 27° 264° (W) 13:05:02 437.675
QB50P2 23 Mar 13:02:26 13:05:51 23° 266° (W) 13:09:17 145.880/145.840
DUCHIFAT 1 23 Mar 13:20:39 13:23:42 19° 267° (W) 13:26:46 145.980
Gurwin Techsat 1B 23 Mar 13:21:38 13:26:11 30° 65° (ENE) 13:30:45 435.225
SPROUT 23 Mar 13:30:49 13:35:06 63° 101° (E) 13:39:20 437.525
Oscar 19 23 Mar 13:35:18 13:40:21 65° 72° (ENE) 13:45:26 437.125/150
PCSat 23 Mar 13:38:00 13:40:17 13° 326° (NNW) 13:42:35 145.827
DX 1 23 Mar 13:44:31 13:48:41 40° 99° (E) 13:52:48 434.975-435.025
50 SAT 23 Mar 13:50:22 13:53:53 84° 103° (ESE) 13:57:23 437.505
BUGSAT 1 23 Mar 13:50:47 13:54:16 25° 265° (W) 13:57:48 437.445
VELOX 1 23 Mar 13:55:32 13:59:57 64° 287° (WNW) 14:04:22 145.980
NO-84 23 Mar 13:58:57 14:01:12 18° 24° (NNE) 14:03:34 435.350 FM
ESTCUBE 1 23 Mar 14:05:03 14:08:07 18° 296° (WNW) 14:11:10 437.505/2401.250
AO-7 23 Mar 14:11:43 14:18:20 27° 53° (NE) 14:24:56 .
UKube-1 23 Mar 14:31:45 14:36:07 87° 281° (W) 14:40:26 .
RS-15 23 Mar 14:34:27 14:46:31 86° 303° (WNW) 14:59:00 29.354- 29.394
BEESAT 23 Mar 14:53:53 14:55:53 12° 89° (E) 14:57:53 436.000
SO-50 23 Mar 14:54:57 14:55:46 10° 107° (ESE) 14:56:34 436.795
Gurwin Techsat 1B 23 Mar 15:01:04 15:06:00 38° 263° (W) 15:10:57 435.225
ITUPSAT 1 23 Mar 15:06:49 15:09:54 17° 92° (E) 15:12:56 437.325
SPROUT 23 Mar 15:08:24 15:10:29 13° 298° (WNW) 15:12:34 437.525
ITAMSAT 1 23 Mar 15:14:27 15:19:32 55° 71° (ENE) 15:24:38 435.822/435.867
Oscar 19 23 Mar 15:17:07 15:20:08 16° 270° (W) 15:23:10 437.125/150
DX 1 23 Mar 15:21:21 15:24:35 21° 295° (WNW) 15:27:50 434.975-435.025
NO-84 23 Mar 15:35:48 15:39:04 82° 221° (SW) 15:42:39 435.350 FM
MOZHAYETS 4 23 Mar 15:41:05 15:43:51 16° 91° (E) 15:46:36
AO-7 23 Mar 16:01:59 16:10:20 77° 253° (WSW) 16:18:41 .
BEESAT 23 Mar 16:29:25 16:34:11 72° 286° (WNW) 16:38:54 436.000
SO-50 23 Mar 16:30:51 16:35:31 89° 112° (ESE) 16:40:08 436.795
ITUPSAT 1 23 Mar 16:43:23 16:48:03 54° 288° (WNW) 16:52:39 437.325
RS-15 23 Mar 16:50:06 17:01:01 36° 331° (NNW) 17:12:07 29.354- 29.394
ITAMSAT 1 23 Mar 16:55:35 16:59:19 20° 268° (W) 17:03:04 435.822/435.867
MOZHAYETS 4 23 Mar 17:16:53 17:21:19 53° 288° (WNW) 17:25:45
KKS-1 23 Mar 17:22:57 17:27:11 39° 98° (E) 17:31:21 437.445
LilacSat-2 23 Mar 17:34:58 17:37:35 18° 67° (ENE) 17:40:13 437.200
O/OREOS (USA 219) 23 Mar 17:39:37 17:43:37 32° 105° (ESE) 17:47:41 437.305
XW-2F 23 Mar 17:39:41 17:42:22 18° 67° (ENE) 17:45:02 145.980 - 146.000
DOVE 4 23 Mar 17:46:01 17:50:12 35° 68° (ENE) 17:54:39 437.250
YUBILEINY 23 Mar 17:51:58 17:57:12 17° 58° (ENE) 18:02:25 435.215
HO-68 23 Mar 17:52:54 17:56:39 15° 50° (NE) 18:00:25 435.675
CUBESAT XI-V 23 Mar 17:59:41 18:04:20 74° 102° (ESE) 18:08:59 437.345
AO-7 23 Mar 18:00:03 18:04:22 15° 272° (W) 18:08:43 .
XW-2D 23 Mar 18:02:30 18:05:59 35° 72° (ENE) 18:09:29 145.860 - 145.880
XW-2B 23 Mar 18:08:14 18:11:49 39° 72° (ENE) 18:15:24 145.730 - 145.750
STARS 23 Mar 18:08:35 18:12:56 53° 100° (E) 18:17:15 437.465
SO-50 23 Mar 18:13:41 18:16:36 16° 323° (NW) 18:19:30 436.795
NUDT-PHONESAT 23 Mar 18:14:12 18:17:41 37° 72° (ENE) 18:21:11 437.300
KAITUO 1B 23 Mar 18:17:07 18:20:40 41° 72° (ENE) 18:24:13 145.475/437.950
XW-2C 23 Mar 18:18:05 18:21:49 53° 73° (ENE) 18:25:33 145.795 - 145.815
CUTE-I 23 Mar 18:18:52 18:24:07 58° 71° (ENE) 18:29:24 437.470
PCSat 23 Mar 18:54:20 18:58:50 26° 45° (NE) 19:03:19 145.827
CUTE 1.7 + AOD 2 23 Mar 18:58:42 19:01:48 20° 66° (ENE) 19:04:53 437.475
SEEDS 23 Mar 18:59:22 19:01:27 14° 63° (ENE) 19:03:34 437.485
KKS-1 23 Mar 19:00:02 19:03:29 22° 295° (WNW) 19:06:54 437.445
LilacSat-2 23 Mar 19:08:06 19:11:37 34° 263° (W) 19:15:09 437.200
RS-15 23 Mar 19:08:39 19:18:34 26° 6° (N) 19:28:22 29.354- 29.394
XW-2F 23 Mar 19:12:51 19:16:17 32° 263° (W) 19:19:44 145.980 - 146.000
UWE-3 23 Mar 19:17:57 19:19:25 11° 60° (ENE) 19:20:53 435.000/436.395/437.385
XW-2A 23 Mar 19:18:42 19:21:54 37° 73° (ENE) 19:25:08 145.665 - 145.685
O/OREOS (USA 219) 23 Mar 19:19:09 19:23:02 27° 303° (WNW) 19:26:57 437.305
DOVE 4 23 Mar 19:24:09 19:27:58 25° 267° (W) 19:31:59 437.250
HO-68 23 Mar 19:36:02 19:43:08 71° 70° (ENE) 19:50:16 435.675
M-CUBED/EXP-1 PRIME 23 Mar 19:36:24 19:40:59 64° 106° (ESE) 19:45:37 437.505
XW-2D 23 Mar 19:37:48 19:40:18 17° 267° (W) 19:42:48 145.860 - 145.880
CUBESAT XI-V 23 Mar 19:38:55 19:41:06 13° 299° (WNW) 19:43:19 437.345
CUBEBUG 2 23 Mar 19:41:31 19:45:38 30° 68° (ENE) 19:49:45 437.445
XW-2B 23 Mar 19:43:59 19:46:12 15° 268° (W) 19:48:24 145.730 - 145.750
STARS 23 Mar 19:46:04 19:48:51 17° 298° (WNW) 19:51:38 437.465
YUBILEINY 23 Mar 19:46:53 19:55:38 78° 81° (E) 20:04:20 435.215
NUDT-PHONESAT 23 Mar 19:49:32 19:51:46 15° 268° (W) 19:54:00 437.300
KAITUO 1B 23 Mar 19:52:52 19:54:53 14° 268° (W) 19:56:54 145.475/437.950
XW-2C 23 Mar 19:55:10 19:56:20 11° 270° (W) 19:57:30 145.795 - 145.815
CUTE-I 23 Mar 20:00:44 20:04:31 19° 268° (W) 20:08:20 437.470
Oscar 11 23 Mar 20:03:58 20:06:17 14° 63° (ENE) 20:08:35 .
ZACube-1 23 Mar 20:04:15 20:07:29 19° 65° (ENE) 20:10:42 437.345
AAUSAT CUBESAT 2 23 Mar 20:26:48 20:30:49 58° 74° (ENE) 20:34:52 437.432
SEEDS 23 Mar 20:32:35 20:36:41 57° 260° (W) 20:40:48 437.485
CUTE 1.7 + AOD 2 23 Mar 20:33:29 20:37:24 37° 263° (W) 20:41:18 437.475
AO-73 23 Mar 20:33:36 20:37:41 34° 70° (ENE) 20:41:44 145.935
PCSat 23 Mar 20:37:16 20:42:35 57° 245° (WSW) 20:47:52 145.827
DELFI C3 23 Mar 20:44:16 20:44:34 10° 61° (ENE) 20:44:53 145.870
STRAND 1 23 Mar 20:46:59 20:52:09 84° 106° (ESE) 20:57:15 437.568
UWE-3 23 Mar 20:50:29 20:55:10 88° 253° (WSW) 20:59:51 435.000/436.395/437.385
XW-2A 23 Mar 20:53:13 20:54:51 13° 268° (W) 20:56:28 145.665 - 145.685
M-CUBED/EXP-1 PRIME 23 Mar 21:12:01 21:14:56 17° 302° (WNW) 21:17:54 437.505
CUBEBUG 2 23 Mar 21:17:58 21:22:10 31° 265° (W) 21:26:23 437.445
RS-15 23 Mar 21:23:30 21:35:18 47° 39° (NE) 21:46:39 29.354- 29.394
HO-68 23 Mar 21:26:04 21:31:27 23° 268° (W) 21:36:52 435.675
Oscar 11 23 Mar 21:37:40 21:41:56 59° 260° (W) 21:46:13 .
ZACube-1 23 Mar 21:39:02 21:43:25 46° 261° (W) 21:47:48 437.345
PRISM 23 Mar 21:41:29 21:42:50 11° 90° (E) 21:44:11 437.425
YUBILEINY 23 Mar 21:45:10 21:51:25 23° 281° (W) 21:57:41 435.215
ISS 23 Mar 21:49:58 21:52:24 20° 134° (SE) 21:54:52 437.550
Tancredo 1 23 Mar 22:03:45 22:06:32 29° 137° (SE) 22:09:21 437.200
AAUSAT CUBESAT 2 23 Mar 22:05:09 22:06:39 12° 270° (W) 22:08:10 437.432
AO-73 23 Mar 22:10:13 22:13:56 25° 266° (W) 22:17:39 145.935
AO-85 23 Mar 22:12:42 22:17:04 58° 120° (ESE) 22:21:10 145.980
DELFI C3 23 Mar 22:14:52 22:18:46 72° 258° (WSW) 22:22:43 145.870
STRAND 1 23 Mar 22:28:05 22:30:36 14° 302° (WNW) 22:33:07 437.568
TIGRISAT 23 Mar 22:56:25 23:00:34 36° 97° (E) 23:04:34 435.000
UNISAT 6 23 Mar 23:05:29 23:09:50 50° 99° (E) 23:14:03 437.425
BEESAT 3 23 Mar 23:12:06 23:15:11 22° 113° (ESE) 23:18:19 437.485
LO-87 23 Mar 23:12:23 23:15:55 60° 75° (ENE) 23:19:30 145.935 - 145.965
PRISM 23 Mar 23:14:24 23:18:31 63° 286° (WNW) 23:22:38 437.425
VELOX 1 23 Mar 23:19:29 23:21:44 14° 61° (ENE) 23:23:58 145.980
SO-50 23 Mar 23:21:55 23:24:52 17° 38° (NE) 23:27:47 436.795
BEESAT 2 23 Mar 23:22:43 23:24:02 11° 108° (ESE) 23:25:21 435.950
ISS 23 Mar 23:25:25 23:28:38 55° 331° (NNW) 23:31:52 437.550
FO-29 23 Mar 23:25:38 23:31:33 45° 97° (E) 23:36:50 435.910
ESTCUBE 1 23 Mar 23:27:28 23:31:46 49° 72° (ENE) 23:36:05 437.505/2401.250
Tancredo 1 23 Mar 23:39:35 23:42:37 39° 335° (NNW) 23:45:39 437.200
